TimeCST,TemperatureF,Dew PointF,Humidity,Sea Level PressureIn,VisibilityMPH,Wind Direction,Wind SpeedMPH,Gust SpeedMPH,PrecipitationIn,Events,Conditions,WindDirDegrees,DateUTC
12:53 AM,24.1,18.0,77,30.35,9.0,Calm,Calm,-,N/A,,Clear,0,2012-11-28 06:53:00
1:53 AM,21.0,18.0,88,30.35,10.0,West,4.6,-,N/A,,Clear,280,2012-11-28 07:53:00
2:53 AM,15.1,12.0,88,30.28,10.0,WNW,6.9,-,N/A,,Clear,290,2012-11-28 08:53:00
3:53 AM,16.0,12.9,88,30.28,9.0,WSW,3.5,-,N/A,,Clear,240,2012-11-28 09:53:00
4:53 AM,15.1,10.9,84,30.29,8.0,WNW,3.5,-,N/A,,Clear,300,2012-11-28 10:53:00
5:53 AM,15.8,12.2,86,30.30,8.0,WSW,9.2,-,N/A,,Clear,250,2012-11-28 11:53:00
6:53 AM,15.1,10.9,84,30.30,8.0,WSW,5.8,-,N/A,,Clear,240,2012-11-28 12:53:00
7:53 AM,12.9,9.0,84,30.40,6.0,WSW,3.5,-,N/A,,Clear,240,2012-11-28 13:53:00
8:53 AM,19.0,14.0,81,30.41,4.0,SW,3.5,-,N/A,,Haze,220,2012-11-28 14:53:00
9:53 AM,26.1,18.0,71,30.39,6.0,WSW,5.8,-,N/A,,Haze,240,2012-11-28 15:53:00
10:53 AM,35.1,21.9,59,30.37,10.0,WSW,6.9,-,N/A,,Clear,250,2012-11-28 16:53:00
11:53 AM,41.0,24.1,51,30.31,10.0,WSW,4.6,-,N/A,,Clear,250,2012-11-28 17:53:00
12:53 PM,48.0,26.1,42,30.26,10.0,South,6.9,-,N/A,,Clear,190,2012-11-28 18:53:00
1:53 PM,51.1,26.1,38,30.21,10.0,South,10.4,-,N/A,,Clear,190,2012-11-28 19:53:00
2:53 PM,53.1,26.1,35,30.18,10.0,SSW,5.8,-,N/A,,Clear,210,2012-11-28 20:53:00
3:53 PM,54.0,25.0,33,30.15,10.0,South,4.6,-,N/A,,Clear,170,2012-11-28 21:53:00
4:53 PM,51.1,24.1,35,30.14,10.0,SE,4.6,-,N/A,,Clear,130,2012-11-28 22:53:00
5:53 PM,46.0,24.1,42,30.15,10.0,SSE,6.9,-,N/A,,Clear,150,2012-11-28 23:53:00
6:53 PM,42.1,24.1,49,30.16,10.0,South,3.5,-,N/A,,Clear,180,2012-11-29 00:53:00
7:53 PM,39.9,24.1,53,30.16,10.0,SSW,9.2,-,N/A,,Clear,200,2012-11-29 01:53:00
8:53 PM,41.0,24.1,51,30.13,10.0,SSW,9.2,-,N/A,,Clear,200,2012-11-29 02:53:00
9:53 PM,34.0,21.9,61,30.11,10.0,WSW,8.1,-,N/A,,Clear,240,2012-11-29 03:53:00
10:53 PM,32.0,21.9,66,30.09,10.0,WSW,6.9,-,N/A,,Clear,240,2012-11-29 04:53:00
11:53 PM,32.0,23.0,69,30.07,10.0,WNW,4.6,-,N/A,,Clear,290,2012-11-29 05:53:00